Showing default

SINOD-D 1, 40974

Orbit data source: Space-Track

SINOD-D 1, 40974 is a payload satellite owned by SRI (US) in LEO that was launched on Thu, 08 Oct 2015 UTC via an ATLAS V 401 launch vehicle from the Air Force Western Test Range (AFWTR). Payload-class satellites include a variety of spacecraft equipped with specific instruments for various scientific and technological missions. These include communications satellites like Starlink; space stations such as the ISS; scientific satellites like the Hubble; Earth observation satellites from companies like Planet Labs, Umbra, and HawkEye 360; GPS; miniature CubeSats for education and research; and military/defense satellites.

Loading next visibility...
Identifier
40974, 2015-058L
Orbit
LEO
Country
Flag of USUS
Related business
Manufacturer
SRI
Mission
Operational Commercial Technology
Bus & Motor
CUBESAT 2U, Unknown motor
Mass
2 kg wet, 2 kg dry
Launch date (UTC)
2015-10-08 (10 years ago)
Launch vehicle
ATLAS V 401
Launch site
Air Force Western Test Range (AFWTR)
Object type
Payload
Rocket body
Debris
Shape & HBR
Box, 0.1 m
Radar Cross Section
0.040 m², Small (<0.1 m²)

Expand to show TLE details & history
Last TLE update: 19 hours ago

TLE from 19 hours ago
0 SINOD-D 1
1 40974U 15058L   25258.56455775  .00014708  00000-0  84940-3 0  9997
2 40974  64.7641 336.4178 0102730 164.4694 195.9620 15.08104636 74088
Epoch: 2025-09-15T13:32Z
TLE epoch observation values (Epoch: 2025-09-15T13:32:57.789Z)
Latitude
-0.00007°
Longitude
138.40958°
Altitude
612.425 km
Speed
7.516 km/s
True Right ascension
22h 25m 40s
True Declination
0° 00' 00"
Sunlit
Object was in full shadow at epoch
Visualization orbit readout
Latitude
Unknown
Longitude
Unknown
Altitude
Unknown
Speed
Unknown
Apparent Right ascension
Unknown
Apparent Declination
Unknown
Sunlit
N/A
Visualization observer readout
Local Sidereal Time
00:49:43
Azimuth
Unknown
Elevation
Unknown
Doppler factor
Unknown
Orbital elements
Apogee altitude
611.625 km
Perigee altitude
469.474 km
Semi-major axis
6,918.686 km
Eccentricity
0.01027
Inclination
64.7641°
RAAN
336.4178°
Arg. of periapsis
164.4694°
True anomaly
195.64222°
Mean anomaly
195.962°
Eccentric anomaly
195.80172°
Mean motion
3.77144 °/min
Orbital period
95.45 mins
BSTAR
0.0008494
Loading maneuver chart data...
Computing Atmospheric mass density...
Loading historical data...
Loading historical data...
Loading historical data...
Loading historical data...
Loading historical data...
Loading historical data...
Loading historical data...

Documentation

Showing up to 5 results
|